Wheeler Observed Data For Previous 48 Hours

Caption
Day and Hour Reservoir Elevation (behind dam)* Tailwater Elevation (below dam)* Average Hourly Discharge*
3/18/2019 1 AM CDT 551.66 507.81 169,496
3/18/2019 2 AM CDT 551.66 507.80 169,526
3/18/2019 3 AM CDT 551.64 507.76 169,556
3/18/2019 4 AM CDT 551.65 507.79 169,402
3/18/2019 5 AM CDT 551.65 507.79 169,261
3/18/2019 6 AM CDT 551.62 507.74 169,501
3/18/2019 7 AM CDT 551.61 507.76 169,256
3/18/2019 8 AM CDT 551.57 507.80 168,927
3/18/2019 9 AM CDT 551.59 507.78 168,862
3/18/2019 10 AM CDT 551.57 507.75 168,571
3/18/2019 11 AM CDT 551.56 507.78 168,382
3/18/2019 12 PM CDT 551.53 507.74 168,105
3/18/2019 1 PM CDT 551.55 507.69 163,494
3/18/2019 2 PM CDT 551.59 507.61 149,789
3/18/2019 3 PM CDT 551.61 507.55 148,959
3/18/2019 4 PM CDT 551.63 507.61 149,684
3/18/2019 5 PM CDT 551.67 507.67 149,624
3/18/2019 6 PM CDT 551.69 507.69 149,579
3/18/2019 7 PM CDT 551.73 507.72 149,883
3/18/2019 8 PM CDT 551.74 507.77 149,933
3/18/2019 9 PM CDT 551.75 507.78 149,917
3/18/2019 10 PM CDT 551.77 507.81 149,916
3/18/2019 11 PM CDT 551.78 507.85 149,425
3/19/2019 12 AM CDT 551.79 507.82 147,227
3/19/2019 1 AM CDT 551.81 507.85 147,079
3/19/2019 2 AM CDT 551.82 507.93 147,155
3/19/2019 3 AM CDT 551.82 507.85 147,374
3/19/2019 4 AM CDT 551.82 507.89 146,963
3/19/2019 5 AM CDT 551.83 507.97 146,924
3/19/2019 6 AM CDT 551.83 507.96 147,329
3/19/2019 7 AM CDT 551.80 508.09 149,460
3/19/2019 8 AM CDT 551.81 508.12 149,532
3/19/2019 9 AM CDT 551.79 508.16 149,835
3/19/2019 10 AM CDT 551.81 508.12 149,784
3/19/2019 11 AM CDT 551.83 508.11 144,700
3/19/2019 12 PM CDT 551.80 508.15 139,846
3/19/2019 1 PM CDT 551.88 508.08 134,312
3/19/2019 2 PM CDT 551.87 507.99 129,863
3/19/2019 3 PM CDT 551.93 507.99 129,965
3/19/2019 4 PM CDT 551.96 507.96 130,255
3/19/2019 5 PM CDT 551.96 507.92 130,248
3/19/2019 6 PM CDT 551.99 507.91 130,297
3/19/2019 7 PM CDT 552.00 507.90 130,477
3/19/2019 8 PM CDT 552.00 507.82 130,562
3/19/2019 9 PM CDT 552.02 507.81 130,517
3/19/2019 10 PM CDT 552.02 507.72 130,545
3/19/2019 11 PM CDT 552.04 507.76 130,722
3/20/2019 12 AM CDT 552.05 507.72 130,649
3/20/2019 1 AM CDT 552.05 507.67 130,718
3/20/2019 2 AM CDT 552.05 507.64 130,556
3/20/2019 3 AM CDT 552.06 507.61 130,761
3/20/2019 4 AM CDT 552.07 507.61 130,681
3/20/2019 5 AM CDT 552.07 507.55 130,425
3/20/2019 6 AM CDT 552.08 507.55 130,635
3/20/2019 7 AM CDT 552.07 507.52 130,414

Elevations are in feet above sea level. Discharges are in cubic feet per second and are reported at the end of the hour.